STARLINK-4193, 52875

Orbit data source: Space-Track

STARLINK-4193, 52875 is a payload satellite owned by SpaceX/Seattle (US) in LEO that was launched on Fri, 17 Jun 2022 UTC via an FALCON 9 launch vehicle from the Air Force Eastern Test Range (AFETR). Payload-class satellites include a variety of spacecraft equipped with specific instruments for various scientific and technological missions. These include communications satellites like Starlink; space stations such as the ISS; scientific satellites like the Hubble; Earth observation satellites from companies like Planet Labs, Umbra, and HawkEye 360; GPS; miniature CubeSats for education and research; and military/defense satellites.

Loading next visibility...
Identifier
52875, 2022-062AX
Orbit
LEO
Country
Flag of USUS
Related business
Manufacturer
SpaceX/Seattle
Mission
Operational Commercial Communications
Bus & Motor
STARLINK, Unknown motor
Mass
297 kg wet, ~275 kg dry
Launch date (UTC)
2022-06-17 (3 years ago)
Launch vehicle
FALCON 9
Launch site
Air Force Eastern Test Range (AFETR)
Object type
Payload
Rocket body
Debris
Shape & HBR
Box + 1 Pan, 10.1 m
Radar Cross Section
13.562 m², Large (>1 m²)

Expand to show TLE details & history
Last TLE update: 19 hours ago

TLE from 19 hours ago
0 STARLINK-4193
1 52875U 22062AX  25348.83219313 -.00001321  00000-0 -64939-4 0  9995
2 52875  53.2185  35.0605 0001217  86.1615 273.9517 15.08823167193255
Epoch: 2025-12-14T19:58Z
TLE epoch observation values (Epoch: 2025-12-14T19:58:21.486Z)
Latitude
0.00004°
Longitude
11.73155°
Altitude
540.634 km
Speed
7.593 km/s
True Right ascension
02h 20m 14s
True Declination
0° 00' 00"
Sunlit
Object was in full shadow at epoch
Visualization orbit readout
Latitude
Unknown
Longitude
Unknown
Altitude
Unknown
Speed
Unknown
Apparent Right ascension
Unknown
Apparent Declination
Unknown
Sunlit
N/A
Visualization observer readout
Local Sidereal Time
13:19:54
Azimuth
Unknown
Elevation
Unknown
Doppler factor
Unknown
Orbital elements
Apogee altitude
540.882 km
Perigee altitude
539.198 km
Semi-major axis
6,918.177 km
Eccentricity
0.00012
Inclination
53.2185°
RAAN
35.0605°
Arg. of periapsis
86.1615°
True anomaly
273.93779°
Mean anomaly
273.9517°
Eccentric anomaly
273.94474°
Mean motion
3.77186 °/min
Orbital period
95.44 mins
BSTAR
-0.000064939
Loading maneuver chart data...
Computing Atmospheric mass density...
Loading historical data...
Loading historical data...
Loading historical data...
Loading historical data...
Loading historical data...
Loading historical data...
Loading historical data...

Documentation

Showing up to 5 results
|